sat.trackr.live / text

‹ back to catalog

STARLINK-4139

NORAD 52879 · 2022-062BB

PAYLOAD ACTIVE UNKNOWN

§ Identity

Operator
Country
US
Launch date
2022-06-17
Launch site
AFETR
Launch vehicle
Mass (kg)
RCS (m²)

Purposes: comms

External: N2YO · Heavens-Above · Gunter

§ Orbital elements

Epoch: 2026-05-25T02:09:31.215168Z

Period
95.44 min
Inclination
53.2132°
Eccentricity
0.0001398
Mean motion
15.08839969 rev/d
Perigee alt
538.8 km
Apogee alt
540.7 km
Semi-major
6,917.9 km
B*
6.1423e-5
RAAN
31.1451°
Arg perigee
78.5280°
Mean anomaly
281.5870°
Rev number
21,760

§ Raw data

STARLINK-41391 52879U 22062BB  26145.08994462  .00000690  00000+0  61423-4 0  99972 52879  53.2132  31.1451 0001398  78.5280 281.5870 15.08839969217600

JSON: /api/v1/satellites/52879 · /tle

For live sub-satellite position, see the globe view (requires WebGL).

§ Visibility from observer

Set your observer location to see the next 7 days of passes ≥ 10°. The values pass through the URL so the page stays shareable.

No JS? Fill the form by hand. The geolocation button needs JavaScript.